sat.trackr.live / text

‹ back to catalog

STARLINK-30415

NORAD 57821 · 2023-138P

PAYLOAD ACTIVE UNKNOWN

§ Identity

Operator
Country
US
Launch date
2023-09-09
Launch site
AFETR
Launch vehicle
Mass (kg)
RCS (m²)

Purposes: comms

External: N2YO · Heavens-Above · Gunter

§ Orbital elements

Epoch: 2026-09-20T05:23:03.282720Z

Period
94.27 min
Inclination
42.9990°
Eccentricity
0.0000955
Mean motion
15.27573496 rev/d
Perigee alt
482.4 km
Apogee alt
483.7 km
Semi-major
6,861.2 km
B*
2.6385e-6
RAAN
216.0837°
Arg perigee
275.9352°
Mean anomaly
84.1390°
Rev number
16,848

§ Raw data

STARLINK-304151 57821U 23138P   26263.22434355 -.00000189  00000+0  26385-5 0  99942 57821  42.9990 216.0837 0000955 275.9352  84.1390 15.27573496168488

JSON: /api/v1/satellites/57821 · /tle

For live sub-satellite position, see the globe view (requires WebGL).

§ Visibility from observer

Set your observer location to see the next 7 days of passes ≥ 10°. The values pass through the URL so the page stays shareable.

No JS? Fill the form by hand. The geolocation button needs JavaScript.